Regional Weather Roundup
Issued by NWS

Home | Current Version | Previous Version | Text Only | Print | Product List | Glossary On
Versions: 1 2 3 4 5 6 7 8 9 10 11 12 13 14 15 16 17 18 19 20 21 22 23 24 25 26 27 28 29 30 31 32 33 34 35 36 37 38 39 40 41 42 43 44 45 46 47 48 49 50
000
ASUS43 KDTX 251910
RWRMI
MICHIGAN HOURLY REGIONAL WEATHER ROUNDUP
NATIONAL WEATHER SERVICE DETROIT/PONTIAC MI
300 PM EDT TUE JUL 25 2017

NOTE: "FAIR" INDICATES FEW OR NO CLOUDS BELOW 12,000 FEET WITH NO
SIGNIFICANT WEATHER AND/OR OBSTRUCTION TO VISIBILITY.

MIZ047>049-052>055-059>063-066>070-074>076-081>083-252000-
SOUTHEAST LOWER MICHIGAN

CITY           SKY/WX    TMP DP  RH WIND       PRES   REMARKS
ADRIAN         SUNNY     77  56  48 VRB3      30.23S
ALMA           MOSUNNY   77  46  33 SW7       30.24S
ANN ARBOR      CLOUDY    77  55  46 E6        30.22S
BAD AXE        SUNNY     75  55  50 SE6       30.23S
CARO           SUNNY     78  56  47 NE5       30.22S
DETROIT CITY   SUNNY     77  52  41 E12       30.22S
DETROIT        PTSUNNY   78  55  44 SE9       30.21F
FLINT          MOSUNNY   79  50  36 CALM      30.23S
GROSSE ILE     SUNNY     75  56  51 SE3       30.21S
HILLSDALE      MOSUNNY   75  52  43 E7        30.23S
HOWELL         CLOUDY    76  52  42 E8        30.23S

CITY           SKY/WX    TMP DP  RH WIND       PRES   REMARKS
JACKSON        MOSUNNY   77  49  37 VRB3      30.23S
LAMBERTVILLE   MOSUNNY   75  60  58 CALM      30.22R
LANSING        MOSUNNY   78  50  37 N6        30.24R
LAPEER         FAIR      76  55  47 SE3       30.23F
MASON          MOSUNNY   76  54  47 SE5       30.24S
MONROE         SUNNY     75  57  53 CALM      30.21S
MT. CLEMENS    PTSUNNY   76  55  49 E8        30.21S
PONTIAC        CLOUDY    77  53  43 VRB6      30.22S
PORT HOPE        N/A     70  56  61 E3        30.23S
PORT HURON     SUNNY     77  57  50 NE8       30.23S
TRI CITIES     MOSUNNY   77  55  46 CALM      30.24R
MIDLAND        FAIR      78  54  42 SW7       30.22R
TROY           SUNNY     78  53  41 NE6       30.24S
SAGINAW HB     MOSUNNY   77  54  44 CALM      30.23R
$$
MIZ043>046-050>051-056>058-064>065-071>073-077>080-252000-
SOUTHWEST LOWER MICHIGAN

CITY           SKY/WX    TMP DP  RH WIND       PRES   REMARKS
BATTLE CREEK   SUNNY     79  51  37 CALM      30.24S
BENTON HARBOR  SUNNY     78  48  34 MISG      30.22F
BIG RAPIDS     PTSUNNY   75  54  47 S6        30.22F
COLDWATER      SUNNY     76  53  44 SE8       30.23S
FREMONT        PTSUNNY   77  55  47 W6        30.22F
HOLLAND        MOSUNNY   78  59  51 W7        30.23
GRAND RAPIDS   PTSUNNY   79  53  40 SW5       30.23F
IONIA          FAIR      77  48  35 CALM      30.23F
KALAMAZOO      SUNNY     78  46  32 VRB3      30.23S
LUDINGTON      MOSUNNY   72  65  77 SW13G22   30.22S
MARSHALL       SUNNY     77  51  40 CALM      30.23S
MOUNT PLEASANT MOSUNNY   78  49  35 S5        30.23S
MUSKEGON       PTSUNNY   77  57  50 W12       30.23S
SOUTH HAVEN    SUNNY     77  60  54 NW7       30.22F
$$
MIZ016>042-252000-
NORTHERN LOWER MICHIGAN

CITY           SKY/WX    TMP DP  RH WIND       PRES   REMARKS
ALPENA         SUNNY     76  60  57 E14       30.22S
BEAVER ISLAND  SUNNY     75  56  51 SW9G16    30.20F
BELLAIRE       SUNNY     80  52  37 W7        30.20S
CADILLAC       MOSUNNY   80  52  37 S8        30.22F
CHARLEVOIX     SUNNY     76  59  55 W10       30.23S
FRANKFORT      SUNNY     75  62  63 SW6       30.22S
GAYLORD        MOSUNNY   78  50  37 S9        30.22S
GRAYLING       MOSUNNY   78  51  38 SW5       30.23S
HARBOR SPRINGS SUNNY     78  54  42 W8        30.20S
HOUGHTON LAKE  SUNNY     78  52  40 SW8       30.24R
MANISTEE       MOSUNNY   75  59  57 W12G18    30.21S
OSCODA         SUNNY     75  55  50 SE8       30.23R
PELLSTON       SUNNY     80  52  37 SW8       30.20S
ROGERS CITY    SUNNY     72  56  57 E7        30.22S
TRAVERSE CITY  PTSUNNY   81  54  39 W9        30.18F
$$
MIZ007>008-015-252000-
EASTERN UPPER MICHIGAN

CITY           SKY/WX    TMP DP  RH WIND       PRES   REMARKS
KINROSS        SUNNY     76  54  46 VRB7G16   30.19F
MACKINAC ISLAN SUNNY     72  56  56 W5        30.20F
NEWBERRY       SUNNY     73  56  56 S13G20    30.17F
S. S. MARIE    SUNNY     78  52  40 S12       30.17F
MUNISING         N/A     79  52  38 S14G20    30.11F
$$
MIZ004>006-011>014-085-252000-
CENTRAL UPPER MICHIGAN

CITY           SKY/WX    TMP DP  RH WIND       PRES   REMARKS
MANISTIQUE     SUNNY     70  66  86 S13       30.18S
ESCANABA       MOSUNNY   75  60  59 S16       30.14F
MENOMINEE      CLOUDY    73  61  65 SW10      30.15F
SAWYER-GWINN   SUNNY     77  48  36 S17G23    30.14F
$$
MIZ001>003-009>011-084-252000-
WESTERN UPPER MICHIGAN

CITY           SKY/WX    TMP DP  RH WIND       PRES   REMARKS
IRON MOUNTAIN  MOSUNNY   72  53  51 S9        30.13F
HOUGHTON       MOSUNNY   79  51  37 S10       30.07F
COPPER HARBOR    N/A     75  54  47 SW8G17    30.08S
IRONWOOD       MOSUNNY   74  58  57 S10G20    30.05F
$$

ABBREVIATIONS USED IN REMARKS
   TC - TEMPERATURE IN CELSIUS
  WCI - WIND CHILL INDEX
   HX - HEAT INDEX
  VSB - VISIBILITY




USA.gov is the U.S. government's official web portal to all federal, state and local government web resources and services.